• In Czech Republic
  • List of Countries
  • For 7 days
  • Water Temperature
  • Satellite Maps
  • Weather Map
  • Weather Widgets
  • user-avatar
    Login

    Hourly Weather Jarim

    Today, 18 July, Wednesday

    Time Temperature Precipitation Wind Pressure Humidity
    00:00 +19°C° 0 mm 2 mps 553 mmHg 48%
    01:00 +18°C° 0 mm 2 mps 552 mmHg 49%
    02:00 +18°C° 0 mm 2 mps 552 mmHg 50%
    03:00 +18°C° 0 mm 2 mps 552 mmHg 51%
    04:00 +17°C° 0 mm 2 mps 552 mmHg 51%
    05:00 +17°C° 0 mm 2 mps 552 mmHg 51%
    06:00 +17°C° 0 mm 2 mps 552 mmHg 51%
    07:00 +18°C° 0 mm 2 mps 553 mmHg 45%
    08:00 +20°C° 0 mm 2 mps 554 mmHg 39%
    09:00 +22°C° 0 mm 1 mps 555 mmHg 32%
    10:00 +21°C° 0 mm 2 mps 555 mmHg 31%
    11:00 +23°C° 0 mm 2 mps 555 mmHg 29%
    12:00 +24°C° 0 mm 2 mps 555 mmHg 28%
    13:00 +24°C° 0 mm 3 mps 555 mmHg 29%
    14:00 +24°C° 0 mm 3 mps 555 mmHg 29%
    15:00 +23°C° 0 mm 4 mps 554 mmHg 30%
    16:00 +22°C° 0 mm 4 mps 554 mmHg 31%
    17:00 +22°C° 0 mm 3 mps 554 mmHg 33%
    18:00 +22°C° 0 mm 3 mps 554 mmHg 35%
    19:00 +21°C° 0 mm 3 mps 554 mmHg 38%
    20:00 +21°C° 0 mm 2 mps 554 mmHg 41%
    21:00 +20°C° 0 mm 2 mps 554 mmHg 44%
    22:00 +19°C° 0.4 mm 2 mps 554 mmHg 46%
    23:00 +19°C° 0.4 mm 2 mps 553 mmHg 49%

    Tomorrow, 19 July, Thursday

    Time Temperature Precipitation Wind Pressure Humidity
    00:00 +18°C° 0.4 mm 2 mps 553 mmHg 51%
    01:00 +18°C° 0.6 mm 2 mps 553 mmHg 53%
    02:00 +17°C° 0.6 mm 2 mps 553 mmHg 55%
    03:00 +17°C° 0.6 mm 2 mps 552 mmHg 57%
    04:00 +17°C° 0.6 mm 2 mps 552 mmHg 57%
    05:00 +17°C° 0.6 mm 2 mps 553 mmHg 57%
    06:00 +17°C° 0.6 mm 2 mps 553 mmHg 57%
    07:00 +17°C° 0.1 mm 2 mps 553 mmHg 53%
    08:00 +18°C° 0.1 mm 2 mps 554 mmHg 50%
    09:00 +18°C° 0.1 mm 2 mps 554 mmHg 47%
    10:00 +19°C° 0 mm 2 mps 555 mmHg 42%
    11:00 +21°C° 0 mm 2 mps 555 mmHg 37%
    12:00 +22°C° 0 mm 3 mps 555 mmHg 32%
    13:00 +22°C° 0 mm 3 mps 555 mmHg 31%
    14:00 +23°C° 0 mm 4 mps 555 mmHg 30%
    15:00 +23°C° 0 mm 4 mps 555 mmHg 30%
    16:00 +23°C° 0 mm 4 mps 555 mmHg 31%
    17:00 +22°C° 0 mm 3 mps 555 mmHg 33%
    18:00 +22°C° 0 mm 3 mps 554 mmHg 34%
    19:00 +21°C° 0 mm 3 mps 554 mmHg 36%
    20:00 +21°C° 0 mm 2 mps 554 mmHg 38%
    21:00 +20°C° 0 mm 2 mps 555 mmHg 40%
    22:00 +20°C° 0 mm 2 mps 554 mmHg 42%
    23:00 +20°C° 0 mm 1 mps 554 mmHg 43%

    Day after tomorrow, 20 July, Friday

    Time Temperature Precipitation Wind Pressure Humidity
    00:00 +20°C° 0 mm 1 mps 554 mmHg 45%
    01:00 +20°C° 0 mm 1 mps 553 mmHg 46%
    02:00 +19°C° 0 mm 1 mps 553 mmHg 48%
    03:00 +19°C° 0 mm 1 mps 553 mmHg 49%
    04:00 +18°C° 0 mm 2 mps 553 mmHg 49%
    05:00 +18°C° 0 mm 2 mps 553 mmHg 49%
    06:00 +17°C° 0 mm 2 mps 553 mmHg 50%
    07:00 +18°C° 0 mm 2 mps 553 mmHg 46%
    08:00 +19°C° 0 mm 2 mps 554 mmHg 42%
    09:00 +20°C° 0 mm 2 mps 555 mmHg 38%
    10:00 +21°C° 0 mm 2 mps 555 mmHg 35%
    11:00 +22°C° 0 mm 3 mps 556 mmHg 32%
    12:00 +24°C° 0 mm 3 mps 556 mmHg 29%
    13:00 +24°C° 0 mm 3 mps 556 mmHg 30%
    14:00 +24°C° 0 mm 3 mps 555 mmHg 31%
    15:00 +24°C° 0 mm 3 mps 555 mmHg 31%
    16:00 +24°C° 0 mm 3 mps 554 mmHg 33%
    17:00 +22°C° 0 mm 3 mps 554 mmHg 35%
    18:00 +22°C° 0 mm 3 mps 554 mmHg 37%
    19:00 +21°C° 0.2 mm 3 mps 554 mmHg 41%
    20:00 +20°C° 0.2 mm 3 mps 554 mmHg 45%
    21:00 +19°C° 0.2 mm 2 mps 554 mmHg 48%
    22:00 +19°C° 0.1 mm 2 mps 553 mmHg 50%
    23:00 +19°C° 0.1 mm 2 mps 553 mmHg 51%

    21 July, Saturday

    Time Temperature Precipitation Wind Pressure Humidity
    00:00 +19°C° 0.1 mm 2 mps 553 mmHg 52%
    01:00 +18°C° 0 mm 2 mps 552 mmHg 53%
    02:00 +18°C° 0 mm 2 mps 552 mmHg 54%
    03:00 +18°C° 0 mm 2 mps 552 mmHg 55%
    04:00 +17°C° 0 mm 2 mps 552 mmHg 56%
    05:00 +17°C° 0 mm 2 mps 552 mmHg 56%
    06:00 +17°C° 0 mm 2 mps 552 mmHg 57%
    07:00 +18°C° 0 mm 2 mps 553 mmHg 52%
    08:00 +19°C° 0 mm 2 mps 554 mmHg 46%
    09:00 +21°C° 0 mm 2 mps 555 mmHg 40%
    10:00 +22°C° 0 mm 3 mps 556 mmHg 37%
    11:00 +24°C° 0 mm 3 mps 556 mmHg 34%
    12:00 +25°C° 0 mm 3 mps 556 mmHg 30%
    13:00 +24°C° 0.2 mm 3 mps 555 mmHg 33%
    14:00 +22°C° 0.2 mm 4 mps 555 mmHg 37%
    15:00 +22°C° 0.2 mm 4 mps 554 mmHg 40%
    16:00 +21°C° 0.1 mm 4 mps 554 mmHg 42%
    17:00 +21°C° 0.1 mm 4 mps 554 mmHg 44%
    18:00 +21°C° 0.1 mm 4 mps 553 mmHg 46%
    19:00 +20°C° 0.3 mm 4 mps 554 mmHg 49%
    20:00 +19°C° 0.3 mm 3 mps 554 mmHg 52%
    21:00 +19°C° 0.3 mm 3 mps 554 mmHg 55%
    22:00 +18°C° 0 mm 3 mps 553 mmHg 56%
    23:00 +18°C° 0 mm 2 mps 553 mmHg 57%

    22 July, Sunday

    Time Temperature Precipitation Wind Pressure Humidity
    00:00 +18°C° 0 mm 2 mps 553 mmHg 59%
    01:00 +17°C° 0 mm 2 mps 552 mmHg 60%
    02:00 +17°C° 0 mm 2 mps 552 mmHg 62%
    03:00 +18°C° 0 mm 1 mps 552 mmHg 64%
    04:00 +18°C° 0 mm 1 mps 552 mmHg 64%
    05:00 +16°C° 0 mm 1 mps 552 mmHg 64%
    06:00 +16°C° 0 mm 2 mps 552 mmHg 63%
    07:00 +18°C° 0 mm 2 mps 553 mmHg 58%
    08:00 +19°C° 0 mm 2 mps 554 mmHg 52%
    09:00 +20°C° 0 mm 2 mps 555 mmHg 46%
    10:00 +21°C° 0 mm 3 mps 556 mmHg 41%
    11:00 +22°C° 0 mm 3 mps 556 mmHg 37%
    12:00 +24°C° 0 mm 3 mps 556 mmHg 33%
    13:00 +23°C° 0.3 mm 4 mps 555 mmHg 35%
    14:00 +22°C° 0.3 mm 4 mps 555 mmHg 38%
    15:00 +22°C° 0.3 mm 4 mps 554 mmHg 41%
    16:00 +21°C° 1.8 mm 4 mps 553 mmHg 46%
    17:00 +20°C° 1.8 mm 4 mps 553 mmHg 50%
    18:00 +19°C° 1.8 mm 4 mps 553 mmHg 55%
    19:00 +19°C° 0.6 mm 3 mps 553 mmHg 57%
    20:00 +18°C° 0.6 mm 3 mps 553 mmHg 59%
    21:00 +18°C° 0.6 mm 3 mps 553 mmHg 61%
    22:00 +18°C° 0 mm 3 mps 553 mmHg 61%
    23:00 +18°C° 0 mm 3 mps 553 mmHg 61%

    23 July, Monday

    Time Temperature Precipitation Wind Pressure Humidity
    00:00 +17°C° 0 mm 2 mps 553 mmHg 61%
    01:00 +17°C° 0 mm 2 mps 552 mmHg 61%
    02:00 +17°C° 0 mm 2 mps 552 mmHg 61%
    03:00 +17°C° 0 mm 2 mps 552 mmHg 61%
    04:00 +16°C° 0 mm 2 mps 552 mmHg 62%
    05:00 +16°C° 0 mm 2 mps 552 mmHg 62%
    06:00 +16°C° 0 mm 2 mps 552 mmHg 62%
    07:00 +17°C° 0 mm 2 mps 553 mmHg 56%
    08:00 +19°C° 0 mm 2 mps 554 mmHg 49%
    09:00 +20°C° 0 mm 3 mps 555 mmHg 43%
    10:00 +21°C° 0 mm 3 mps 555 mmHg 40%
    11:00 +22°C° 0 mm 3 mps 555 mmHg 37%
    12:00 +24°C° 0 mm 3 mps 555 mmHg 34%
    13:00 +24°C° 1.1 mm 3 mps 555 mmHg 36%
    14:00 +22°C° 1.1 mm 3 mps 554 mmHg 38%
    15:00 +22°C° 1.1 mm 4 mps 553 mmHg 40%
    16:00 +22°C° 1.4 mm 3 mps 553 mmHg 42%
    17:00 +21°C° 1.4 mm 3 mps 553 mmHg 44%
    18:00 +21°C° 1.4 mm 2 mps 553 mmHg 46%
    19:00 +20°C° 0.5 mm 2 mps 553 mmHg 50%
    20:00 +19°C° 0.5 mm 3 mps 553 mmHg 54%
    21:00 +19°C° 0.5 mm 3 mps 553 mmHg 58%
    22:00 +18°C° 0 mm 3 mps 553 mmHg 60%
    23:00 +18°C° 0 mm 3 mps 552 mmHg 63%
    Show more